Weather History for KHAO - May, 2013

Change the Weather History Date:

Sunday, May 12, 2013

  Actual Average (KCVG) Record (KCVG)
Temperature  
Mean Temperature 47 °F 62 °F  
Max Temperature 57 °F 73 °F 90 °F (1881)
Min Temperature 37 °F 52 °F 34 °F (1938)
Degree Days  
Heating Degree Days 18 5  
Month to date heating degree days 68  
Since 1 July heating degree days 4902  
Cooling Degree Days 0 2  
Month to date cooling degree days 16  
Year to date cooling degree days 34  
Moisture  
Dew Point 36 °F    
Average Humidity 75    
Maximum Humidity 100    
Minimum Humidity 36    
Precipitation  
Precipitation 0.00 in 0.16 in 2.37 in (1920)
Month to date precipitation 1.89  
Year to date precipitation 15.55  
Snow  
Snow 0.00 in 0.00 in 0.00 in ()
Month to date snowfall 0.0  
Since 1 July snowfall 22.1  
Snow Depth -    
Sea Level Pressure  
Sea Level Pressure 30.07 in    
Wind  
Wind Speed 2 mph (WNW)    
Max Wind Speed 15 mph    
Max Gust Speed 23 mph    
Visibility 6 miles    
Events Fog    
T = Trace of Precipitation, MM = Missing Value Source: NWS Daily Summary

Daily Weather History Graph

Daily Weather History Graph

Search for Another Location

Airport or City:

Trip Planner

Search our weather history database for the weather conditions in past years. The results will help you decide how hot, cold, wet, or windy it might be!

Date:

Astronomy

May. 12, 2013 Rise Set
Actual Time 6:27 AM EDT 8:42 PM EDT
Civil Twilight 5:57 AM EDT 9:12 PM EDT
Nautical Twilight 5:20 AM EDT 9:49 PM EDT
Astronomical Twilight 4:39 AM EDT 10:30 PM EDT
Moon 8:21 AM EDT (5/12) 11:08 PM EDT (5/12)
Length of Visible Light 15h 15m
Length of Day
14h 15m
Waxing Crescent, 6% of the Moon is Illuminated
May 12
Waxing Crescent
May 18
First Quarter
May 25
Full
May 31
Last Quarter
Jun 8
New

Hourly Weather History & Observations

Time (EDT) Temp. Dew Point Humidity Pressure Visibility Wind Dir Wind Speed Gust Speed Precip Events Conditions
12:53 AM 42.1 °F 41.0 °F 96% 30.05 in 6.0 mi Calm Calm - N/A   Partly Cloudy
1:53 AM 42.1 °F 41.0 °F 96% 30.05 in 9.0 mi Calm Calm - N/A   Scattered Clouds
2:31 AM 39.2 °F 37.4 °F 93% 30.03 in 2.5 mi Calm Calm - N/A   Clear
2:53 AM 39.9 °F 37.9 °F 93% 30.05 in 1.8 mi Calm Calm - N/A   Clear
3:00 AM 39.2 °F 37.4 °F 93% 30.04 in 1.5 mi Calm Calm - N/A   Clear
3:03 AM 39.2 °F 37.4 °F 93% 30.04 in 2.0 mi Calm Calm - N/A   Clear
3:13 AM 39.2 °F 37.4 °F 93% 30.04 in 1.2 mi Calm Calm - N/A   Clear
3:18 AM 39.2 °F 37.4 °F 93% 30.04 in 3.0 mi Calm Calm - N/A   Clear
3:47 AM 39.2 °F 37.4 °F 93% 30.04 in 1.5 mi Calm Calm - N/A   Clear
3:53 AM 39.0 °F 37.0 °F 93% 30.04 in 0.5 mi Calm Calm - N/A Fog Fog
4:14 AM 37.4 °F 35.6 °F 93% 30.04 in 0.8 mi Calm Calm - N/A   Mist
4:17 AM 37.4 °F 37.4 °F 100% 30.04 in 1.2 mi Calm Calm - N/A   Partly Cloudy
4:19 AM 37.4 °F 37.4 °F 100% 30.04 in 2.5 mi Calm Calm - N/A   Partly Cloudy
4:26 AM 37.4 °F 37.4 °F 100% 30.04 in 4.0 mi Calm Calm - N/A   Partly Cloudy
4:32 AM 37.4 °F 37.4 °F 100% 30.04 in 1.5 mi Calm Calm - N/A   Partly Cloudy
4:53 AM 37.0 °F 36.0 °F 96% 30.04 in 1.2 mi Calm Calm - N/A   Clear
5:03 AM 37.4 °F 35.6 °F 93% 30.04 in 3.0 mi Calm Calm - N/A   Clear
5:53 AM 37.0 °F 36.0 °F 96% 30.05 in 8.0 mi Calm Calm - N/A   Clear
6:53 AM 37.9 °F 37.0 °F 97% 30.06 in 9.0 mi Calm Calm - N/A   Clear
7:53 AM 43.0 °F 39.9 °F 89% 30.08 in 10.0 mi Calm Calm - N/A   Clear
8:53 AM 46.9 °F 37.0 °F 68% 30.08 in 10.0 mi NW 6.9 mph - N/A   Clear
9:53 AM 50.0 °F 34.0 °F 54% 30.09 in 10.0 mi WNW 9.2 mph - N/A   Clear
10:53 AM 51.1 °F 32.0 °F 48% 30.10 in 10.0 mi WNW 13.8 mph 19.6 mph N/A   Scattered Clouds
11:53 AM 53.1 °F 32.0 °F 45% 30.11 in 10.0 mi WNW 13.8 mph 19.6 mph N/A   Scattered Clouds
12:53 PM 54.0 °F 30.9 °F 41% 30.11 in 9.0 mi WNW 15.0 mph 21.9 mph N/A   Mostly Cloudy
1:53 PM 55.0 °F 30.9 °F 40% 30.12 in 10.0 mi WNW 12.7 mph 23.0 mph N/A   Scattered Clouds
2:53 PM 55.9 °F 30.0 °F 37% 30.11 in 10.0 mi West 11.5 mph 19.6 mph N/A   Mostly Cloudy
3:53 PM 57.9 °F 30.9 °F 36% 30.11 in 10.0 mi West 13.8 mph 21.9 mph N/A   Mostly Cloudy
4:53 PM 57.0 °F 32.0 °F 39% 30.11 in 10.0 mi West 10.4 mph 17.3 mph N/A   Mostly Cloudy
5:53 PM 55.9 °F 32.0 °F 40% 30.11 in 10.0 mi WNW 13.8 mph 21.9 mph N/A   Mostly Cloudy
6:53 PM 55.0 °F 30.0 °F 38% 30.10 in 10.0 mi NW 10.4 mph - N/A   Mostly Cloudy
7:53 PM 53.1 °F 30.0 °F 41% 30.11 in 10.0 mi WNW 8.1 mph - N/A   Mostly Cloudy
8:53 PM 50.0 °F 33.1 °F 52% 30.12 in 10.0 mi West 3.5 mph - N/A   Mostly Cloudy
9:53 PM 46.9 °F 39.9 °F 77% 30.13 in 10.0 mi Calm Calm - N/A   Mostly Cloudy
10:53 PM 43.0 °F 37.0 °F 80% 30.14 in 10.0 mi Calm Calm - N/A   Mostly Cloudy
11:53 PM 45.0 °F 39.0 °F 80% 30.14 in 10.0 mi Calm Calm - N/A   Overcast